Theta_e
348 347 344 343 346 346 345 343 342 344 344 341 341 341 341 342 342 345 348 348 347 347 348 348 347 346 345 344 345 345 344 345 347 346 343 334 325 326 326 326 327 327 328 327 327 328 328 328 328 328 328 329 330 331 333 334 335 336 337 337 338 339 341 341 341 341 341 340 339 338 338 337 336 337 337 333 328 324 317 317 318 317 318 318 318
349 348 346 345 347 347 346 346 346 347 347 345 342 342 342 343 343 346 348 349 348 349 349 348 347 347 348 346 345 345 344 345 346 346 346 339 329 327 328 327 327 327 328 328 328 329 329 330 330 331 331 333 333 334 335 336 336 337 337 337 338 340 341 341 341 341 340 339 338 337 337 336 334 334 332 329 324 321 318 318 318 318 318 318 318
350 350 348 348 348 348 348 348 348 347 347 347 345 345 345 344 345 347 349 349 349 349 348 348 347 347 348 347 346 346 345 346 346 346 346 342 334 331 331 330 331 331 331 331 331 332 332 332 333 334 334 335 335 336 336 337 337 337 337 338 339 341 341 339 338 337 336 335 335 334 333 332 330 328 326 323 320 318 318 318 318 318 318 317 317
351 350 350 351 350 350 350 349 349 348 345 345 344 345 345 344 344 346 347 349 349 349 347 346 346 346 345 345 345 345 345 345 344 344 345 344 340 337 335 333 333 333 333 333 333 333 333 334 333 334 334 334 334 335 335 335 334 335 337 336 337 336 335 333 332 332 331 331 330 328 328 325 323 322 321 319 318 318 318 318 317 317 317 317 317
351 351 350 350 350 351 351 351 350 347 342 340 342 343 343 342 342 344 347 349 349 349 348 345 345 345 345 344 344 343 343 342 342 343 344 345 344 343 341 339 336 334 334 333 334 333 333 333 332 331 331 331 331 331 330 329 328 330 332 331 330 329 329 328 328 329 328 327 325 323 321 319 319 319 318 318 318 318 319 318 318 318 318 317 317
349 353 350 348 349 350 351 351 347 343 341 343 347 347 347 346 346 347 349 350 349 349 348 346 347 347 345 345 345 345 344 343 343 343 343 344 344 344 344 343 340 338 337 335 334 334 333 332 332 331 330 330 329 328 328 327 326 325 325 326 326 325 325 325 325 325 324 322 320 319 318 317 318 318 318 319 319 320 320 319 320 319 320 319 319
346 351 352 350 350 349 349 349 344 342 343 346 350 351 350 350 349 349 349 349 350 349 349 349 350 349 348 348 348 349 348 346 346 346 345 345 345 346 345 344 343 342 341 339 335 332 332 331 331 330 328 328 327 326 326 325 324 322 322 322 322 322 322 322 321 320 319 319 318 318 318 318 319 319 319 320 320 320 320 320 320 321 321 321 321
343 347 352 352 351 351 349 346 342 344 342 343 350 352 351 352 352 351 350 350 350 350 351 351 351 350 351 350 350 351 350 349 350 348 348 347 348 347 346 346 345 343 343 344 341 335 332 329 329 328 326 326 324 323 322 321 321 320 320 320 320 320 320 320 319 318 318 318 318 318 318 318 319 319 319 320 320 320 320 320 321 321 321 321 321
343 345 351 353 352 352 348 343 342 343 340 344 351 350 349 351 352 352 352 351 351 351 352 351 351 352 351 349 350 351 350 350 349 348 349 350 348 347 347 345 343 343 344 347 346 342 337 333 331 328 326 324 322 321 320 320 320 320 320 320 320 320 320 320 319 320 320 320 320 320 320 321 321 321 321 321 321 321 321 321 321 321 321 321 321
343 344 350 353 352 351 346 343 343 342 341 348 353 350 349 350 352 352 352 352 351 350 351 351 351 350 349 349 350 351 350 349 348 349 350 349 347 347 348 346 344 346 346 347 347 346 343 339 337 336 330 324 323 322 322 322 321 322 322 322 322 323 323 323 323 323 324 324 324 325 325 325 325 325 324 324 325 325 324 324 324 323 323 323 323
343 343 348 353 353 349 344 343 343 342 345 350 352 352 352 352 351 350 352 354 352 351 352 351 351 349 348 348 350 350 349 349 349 350 349 348 346 347 347 346 347 347 345 346 348 347 346 343 343 345 338 328 326 326 325 325 325 325 326 325 325 326 326 326 327 327 327 327 327 327 327 327 327 327 327 327 328 327 327 328 327 327 327 327 326
343 342 344 349 350 346 345 345 344 344 347 352 353 349 347 349 348 347 351 354 353 352 352 352 351 350 349 349 350 350 349 349 349 349 348 347 346 347 346 346 348 348 346 347 348 348 348 346 346 350 346 337 332 329 327 328 327 327 327 328 328 327 328 328 328 328 327 328 328 328 328 328 329 329 329 329 330 330 330 330 330 330 331 330 330
344 343 342 345 346 345 345 346 346 346 348 353 353 347 344 345 345 346 353 355 353 352 352 353 353 352 350 348 349 349 349 350 349 347 346 345 345 346 346 347 347 347 346 345 344 348 349 347 349 352 349 346 343 334 329 330 328 328 329 328 328 328 328 328 327 328 328 329 329 330 330 331 332 333 333 334 335 335 335 336 336 336 336 336 336
345 344 344 344 345 345 346 346 347 346 347 347 347 345 344 345 345 349 355 356 354 351 351 353 352 351 351 348 349 350 350 350 348 345 344 344 344 344 346 346 345 344 346 344 345 348 349 349 351 349 345 348 352 344 337 334 329 327 328 327 328 328 328 329 329 330 332 333 334 334 335 337 338 340 340 340 341 342 343 343 343 343 343 342 342
345 344 345 345 345 346 346 347 347 346 345 344 344 344 343 345 350 353 355 354 353 351 352 352 350 351 353 350 348 349 350 348 345 344 343 343 342 342 345 345 342 343 345 347 347 347 347 349 348 341 339 347 353 351 350 346 334 328 331 329 330 331 332 333 335 336 338 338 340 341 341 342 343 344 345 346 346 347 347 348 348 348 347 346 347
347 347 347 345 345 347 347 346 346 346 345 344 345 345 343 348 353 354 354 352 350 350 351 351 351 353 354 352 348 347 347 345 343 343 342 343 342 341 344 344 342 343 347 347 346 346 347 349 346 338 338 343 347 350 355 352 340 333 336 336 336 337 338 339 340 341 342 343 344 344 345 346 346 347 348 348 348 348 348 349 349 349 348 348 350
348 350 349 344 345 347 346 346 346 346 347 347 348 348 348 352 353 353 355 353 350 348 350 350 351 352 354 353 349 347 346 343 343 344 343 343 342 341 343 344 341 343 346 344 343 346 347 346 346 343 344 347 349 351 355 353 345 341 342 342 341 341 342 341 342 342 344 344 344 345 345 346 346 346 348 348 348 349 349 349 349 349 349 350 353
348 349 349 345 345 345 345 347 346 345 349 352 351 349 351 353 351 353 356 353 351 349 348 350 350 351 353 352 352 351 351 348 345 346 346 343 341 341 343 343 341 341 345 342 343 346 346 345 348 350 350 352 353 353 354 353 347 345 345 342 341 341 341 339 339 340 340 341 342 342 342 342 343 345 346 347 348 347 348 349 350 351 352 354 356
350 347 347 346 346 345 345 349 348 346 347 348 349 350 354 355 352 354 355 350 352 352 348 349 351 351 351 351 351 352 352 352 350 348 347 345 344 341 341 342 340 342 344 343 343 344 344 347 350 350 350 351 352 352 355 354 347 344 343 340 339 339 338 336 336 337 338 338 338 339 341 343 345 346 347 348 349 350 351 352 354 355 357 357 358
351 345 344 345 347 346 345 348 349 349 346 347 352 355 354 352 350 350 348 346 350 353 350 350 351 351 352 352 352 353 353 352 352 351 349 346 344 342 341 341 340 341 344 344 343 343 343 346 347 348 349 351 352 352 353 353 350 346 340 337 337 336 335 334 335 336 339 341 342 344 346 347 349 350 351 351 351 352 353 354 356 357 357 358 357
348 344 344 345 344 345 345 345 347 347 349 353 356 354 350 347 346 345 344 346 350 351 351 352 352 351 352 354 354 354 354 351 350 351 351 347 344 342 341 342 342 341 343 343 343 343 344 344 344 346 350 351 352 353 352 351 349 343 336 332 333 332 333 333 333 335 339 344 347 349 351 350 352 352 352 351 349 349 350 352 353 354 355 356 356
348 345 344 345 344 345 346 346 348 350 353 356 354 350 346 343 343 345 344 347 348 350 352 352 352 351 352 354 355 355 355 353 351 351 350 347 345 342 341 342 340 341 344 343 343 344 345 345 345 348 351 351 352 352 351 345 339 335 332 330 330 330 331 331 330 331 333 337 341 344 346 348 350 350 349 348 347 347 348 349 351 352 353 352 349
354 348 345 346 344 347 352 351 352 353 352 354 353 350 349 346 345 343 343 345 346 349 353 353 352 351 351 352 354 354 355 354 353 351 350 349 347 343 341 342 341 341 343 343 343 345 345 346 346 349 352 352 352 348 345 342 333 330 330 329 329 328 328 328 327 328 329 328 331 333 337 340 343 345 345 346 345 346 348 350 349 349 346 342 338
356 354 351 351 346 346 354 354 352 351 348 352 356 355 354 353 348 343 343 344 344 346 349 353 353 351 350 351 352 353 353 354 353 350 350 349 349 347 342 342 343 342 340 341 343 343 345 347 347 350 351 351 349 339 343 352 340 329 329 328 328 327 326 327 326 326 327 326 327 329 331 335 337 339 342 343 344 347 349 345 341 338 334 331 330
354 357 356 355 348 343 348 349 347 347 348 350 353 352 355 357 351 344 344 343 343 343 345 353 356 352 353 352 350 352 351 352 351 349 349 347 347 348 343 342 344 342 341 342 343 343 345 346 349 352 350 351 349 332 339 358 347 328 330 327 326 328 326 326 326 325 326 325 326 327 329 332 333 336 337 339 345 348 345 337 332 330 329 328 327
354 356 357 357 353 346 344 344 344 344 345 346 346 345 349 354 350 347 350 347 343 344 345 352 356 353 354 354 352 353 351 350 350 348 348 346 345 347 345 345 344 342 342 341 342 345 347 347 349 352 345 340 343 330 332 352 346 328 328 328 328 329 326 326 326 325 325 324 326 326 327 330 332 334 336 339 347 348 339 333 330 331 329 328 327
354 353 354 355 354 349 343 344 345 344 345 345 345 346 345 348 347 348 355 352 344 344 348 352 355 353 353 354 354 354 352 350 349 348 349 347 347 347 347 349 348 343 341 340 341 342 346 348 348 350 345 334 336 337 335 346 345 328 327 339 339 330 325 327 326 325 326 325 325 326 326 329 332 335 338 343 348 346 338 333 333 333 333 331 329
354 349 348 348 350 349 345 345 346 345 347 346 347 349 346 347 347 345 353 354 345 343 350 354 355 354 354 353 353 353 353 353 351 351 351 350 349 349 348 351 352 349 345 345 345 342 343 347 347 351 350 335 337 348 350 352 348 331 329 342 345 336 327 327 327 325 325 325 325 326 326 328 331 335 339 344 348 346 338 336 337 338 338 336 332
355 351 347 344 343 345 346 347 347 344 346 347 347 348 345 347 348 344 349 357 349 342 348 354 356 354 353 354 352 353 354 354 354 355 353 350 350 350 349 350 350 352 352 348 347 347 345 346 348 353 349 337 341 353 356 356 346 332 330 335 341 341 331 326 328 326 325 325 325 324 325 326 330 335 340 345 348 347 341 339 341 343 343 343 339
355 353 351 346 341 341 343 346 347 345 345 346 346 346 346 347 348 344 347 353 350 343 345 351 355 354 354 354 353 353 354 353 353 355 352 349 349 350 350 349 348 352 356 353 350 350 347 346 347 350 347 344 348 353 356 355 343 332 331 330 334 335 330 329 332 328 327 326 324 325 324 324 327 333 340 345 347 348 345 343 344 346 347 348 346
353 353 353 350 344 341 341 342 345 345 344 345 346 346 346 348 348 347 348 347 345 346 347 349 354 356 354 355 355 354 354 353 352 353 354 351 350 350 351 349 349 350 352 352 354 352 348 348 348 347 347 349 350 349 349 349 344 334 330 330 330 328 333 342 337 328 330 329 325 325 323 323 326 329 338 344 346 347 347 346 347 347 349 349 350
351 351 352 352 349 346 345 346 348 348 346 346 347 346 344 346 346 349 352 349 344 347 349 349 355 357 354 353 355 353 353 355 353 353 355 354 352 351 351 351 350 348 345 345 353 355 351 348 346 345 347 349 351 348 341 342 347 339 330 330 330 328 340 349 340 331 334 333 329 327 324 323 324 326 333 339 344 346 346 347 347 347 348 349 350
349 350 349 349 350 350 351 350 350 350 350 350 351 349 345 343 345 348 352 350 345 348 349 350 355 358 354 350 352 351 350 352 354 353 354 354 353 351 351 351 351 351 349 348 352 356 354 349 346 347 347 346 349 350 341 340 347 343 332 329 333 339 348 348 342 338 338 338 338 333 326 324 323 324 329 333 339 343 345 345 345 346 347 348 349
349 349 349 347 348 349 350 351 351 351 351 349 351 352 349 343 343 348 350 347 344 347 348 347 351 355 353 348 348 350 349 348 350 353 353 352 352 351 350 350 350 350 352 353 353 354 355 353 351 351 349 347 351 352 343 337 336 335 331 330 338 350 348 340 341 346 345 344 344 338 331 325 322 324 327 329 333 337 339 341 341 342 343 343 345
347 348 348 349 350 348 346 348 349 351 350 346 346 351 353 348 345 348 352 351 347 346 346 346 347 352 354 351 351 353 353 351 351 351 351 351 350 350 350 350 350 349 350 353 352 349 350 352 352 351 352 353 352 346 338 335 333 334 333 332 338 345 343 337 340 347 349 349 346 341 335 328 324 325 326 327 330 331 333 335 336 338 338 338 340
346 346 346 348 350 348 343 342 343 346 347 344 342 345 350 351 347 347 351 353 352 350 350 352 352 352 354 355 354 354 353 353 353 352 352 351 350 351 351 350 350 349 349 351 350 343 338 340 343 344 345 344 340 336 336 341 341 338 335 332 333 335 337 334 338 346 350 347 347 345 338 331 327 326 325 326 328 329 330 331 333 335 335 337 339
344 346 346 345 349 347 340 336 337 339 340 341 339 341 348 350 347 347 349 349 349 349 350 352 353 353 354 354 354 353 352 353 353 353 352 351 351 351 352 352 351 352 352 352 351 345 339 336 336 337 336 334 334 335 339 341 343 342 340 335 332 332 334 331 334 346 349 347 349 347 338 336 335 331 326 325 326 327 329 330 332 334 336 338 340
344 345 346 346 347 345 337 332 334 335 335 338 337 339 347 350 348 348 348 347 346 347 347 349 351 351 352 352 352 353 352 352 352 352 352 351 352 351 352 353 352 352 354 354 351 346 340 335 333 335 338 344 348 349 347 346 344 341 339 334 332 337 344 342 337 338 342 346 351 345 338 341 345 339 332 328 327 326 328 329 331 334 337 339 342
346 343 344 347 347 345 337 332 334 335 332 333 334 335 341 348 349 349 348 347 347 347 346 347 348 348 349 350 350 351 352 352 351 352 352 352 352 351 351 353 354 353 353 354 353 350 348 346 346 348 350 354 357 356 356 355 348 343 342 344 346 349 352 348 340 337 340 341 339 339 342 348 350 347 342 338 333 328 327 328 330 335 338 340 343
347 344 342 344 347 348 343 336 335 338 335 330 331 332 334 340 346 349 348 346 347 347 346 346 346 347 346 346 348 349 350 350 350 350 351 352 352 352 352 352 354 354 354 354 355 355 356 357 357 357 357 357 356 354 355 355 354 353 355 357 356 353 350 347 345 349 352 344 333 336 349 353 350 350 349 346 341 334 329 328 330 336 340 341 343
345 344 342 342 343 347 349 344 338 340 341 335 329 330 332 334 337 343 347 347 344 346 346 345 345 345 344 343 343 344 346 347 347 345 344 346 348 351 354 354 355 356 355 354 354 354 355 356 356 356 356 356 355 354 355 357 358 359 359 357 356 355 353 353 353 351 353 353 349 348 350 351 351 352 352 350 348 342 335 333 333 337 340 341 342
345 345 344 343 342 343 349 349 344 340 342 340 333 328 330 331 332 335 341 343 343 343 344 345 343 343 343 342 341 341 341 343 344 340 335 334 335 339 345 350 353 354 354 354 353 354 353 353 354 354 355 356 355 355 354 355 355 353 352 352 354 356 356 356 354 350 350 355 356 351 346 346 348 348 347 348 350 348 344 339 335 337 340 340 342
347 347 347 345 343 342 344 349 348 344 342 341 337 330 327 330 330 330 333 338 339 338 339 341 339 338 340 340 340 340 340 341 341 336 329 326 328 328 330 337 341 342 344 347 351 355 356 355 354 354 354 354 353 353 352 351 350 349 348 349 352 356 357 356 356 355 353 352 351 346 342 341 343 342 342 343 346 350 350 343 338 342 342 341 343
351 351 350 349 345 342 341 343 347 348 346 343 338 332 326 327 329 329 331 337 341 338 338 339 337 336 337 338 338 339 339 340 340 336 330 325 325 325 326 328 331 333 335 337 341 346 351 354 355 356 354 353 353 352 350 349 347 345 343 342 342 345 350 353 356 355 351 349 350 347 342 339 340 343 346 346 346 351 353 346 342 345 343 341 342
354 354 353 352 349 346 344 342 343 345 345 345 343 336 329 325 326 328 329 334 340 342 342 343 344 342 338 335 335 335 336 337 339 340 337 331 326 326 325 325 327 329 331 333 333 335 338 341 345 347 347 348 347 343 340 341 340 339 339 335 330 331 340 348 351 350 346 342 343 345 344 342 342 346 350 351 352 354 351 343 341 343 341 339 340
354 355 353 352 350 347 345 345 344 344 344 345 346 342 336 329 326 326 326 329 333 337 340 343 345 347 345 340 333 329 328 329 332 336 337 332 327 326 326 325 325 327 329 331 332 333 333 333 334 335 334 335 335 333 331 332 333 334 333 332 330 332 337 341 343 341 337 332 332 340 344 345 348 352 352 352 353 353 348 340 338 340 341 341 341
355 355 351 350 349 346 345 346 346 347 346 345 345 345 343 338 331 327 326 325 327 329 332 335 337 340 344 345 340 330 326 326 326 327 329 328 325 325 325 324 325 325 325 327 329 331 333 332 332 332 331 331 332 332 331 332 334 334 333 332 333 333 333 334 334 331 330 331 337 346 349 347 350 354 353 351 352 353 349 342 338 340 344 345 345
355 355 353 351 350 348 346 345 345 348 349 348 347 346 346 344 339 336 334 331 329 328 327 328 330 331 333 338 338 330 326 325 325 324 324 325 324 324 324 324 325 327 328 330 329 330 330 330 331 331 331 331 332 332 333 334 337 340 341 342 343 342 340 340 336 334 337 342 346 351 352 350 351 352 353 352 353 354 354 350 345 345 347 348 349
354 355 355 355 354 352 350 348 347 347 347 348 348 347 347 347 346 345 344 343 341 337 332 330 331 330 329 329 329 326 324 323 323 323 322 322 323 323 323 324 327 331 336 339 340 339 337 336 335 334 333 334 334 334 334 334 334 335 338 340 339 337 339 342 343 345 348 349 349 348 350 352 353 352 353 353 353 353 354 355 353 350 350 350 350
355 354 354 355 356 356 355 354 351 349 347 347 347 347 347 348 348 348 348 349 349 347 344 340 338 335 331 327 325 325 324 322 321 322 321 321 322 321 322 323 325 328 332 339 344 346 345 346 345 344 344 343 340 338 337 335 334 333 333 333 331 332 336 340 343 348 350 350 349 348 348 350 352 353 353 353 354 354 354 355 355 353 351 350 351
356 355 354 354 354 356 356 356 356 354 351 349 348 348 348 348 348 349 349 349 350 350 350 349 347 345 341 335 331 328 325 324 323 323 323 322 322 322 321 322 324 324 326 333 342 347 348 350 350 349 350 350 348 346 343 341 339 336 334 332 330 331 334 334 336 343 348 348 347 348 350 351 351 352 353 354 354 354 354 354 354 353 352 351 351
Wind_Speed
20 17 15 16 15 12 11 13 14 14 12 11 11 11 12 13 13 14 12 10 10 10 10 10 10 10 10 11 10 9 9 9 9 8 7 8 8 8 8 7 7 7 7 6 6 6 6 6 6 6 6 6 5 5 5 5 5 5 5 5 5 6 6 6 5 6 6 6 6 6 6 7 7 7 7 7 8 9 7 7 7 6 6 6 6
18 16 15 17 15 11 10 10 11 11 10 10 10 10 11 12 13 13 11 9 8 8 9 8 8 8 9 9 8 8 8 8 8 8 8 7 8 9 9 8 8 8 7 6 6 6 6 6 5 5 5 5 5 4 4 4 4 4 4 4 4 5 5 6 5 5 5 6 6 6 6 6 6 6 6 7 8 7 6 6 6 6 6 5 5
17 14 14 15 13 11 10 9 9 8 8 8 9 9 10 11 12 11 9 8 8 7 7 7 7 7 7 7 7 7 7 7 6 6 6 6 8 8 8 9 8 7 7 7 6 6 5 5 4 4 4 3 3 2 2 2 3 3 4 4 4 4 4 5 6 5 5 5 5 5 6 6 6 6 6 7 6 6 5 6 5 5 5 5 5
16 14 14 13 13 11 9 9 8 7 7 7 8 7 8 10 11 11 10 7 7 7 7 7 7 7 7 7 7 6 7 7 6 5 4 5 6 7 7 8 8 7 7 6 6 5 4 4 3 3 3 2 2 2 2 2 3 3 3 4 4 4 5 5 6 5 5 5 5 5 5 5 5 5 5 5 5 5 5 5 5 5 5 5 5
15 13 12 12 13 12 10 9 8 8 8 8 8 7 8 9 11 12 11 7 6 6 6 6 6 6 6 6 6 6 7 7 6 6 5 4 4 4 5 6 6 7 7 7 6 5 4 4 3 3 3 3 3 3 3 3 4 4 4 5 5 5 5 5 5 5 4 4 4 5 5 5 5 5 5 5 5 5 5 5 5 5 5 5 5
15 13 11 11 12 11 10 9 10 11 10 10 8 7 7 7 9 10 9 7 5 5 6 6 6 6 6 5 6 6 6 6 5 6 5 4 4 4 4 3 4 5 6 7 6 6 5 4 3 3 3 4 4 4 4 5 5 5 5 5 5 5 5 5 5 4 4 4 4 5 5 5 5 5 5 5 5 5 5 5 5 6 6 5 5
13 14 12 11 10 9 9 9 11 12 11 11 10 7 7 7 7 7 7 7 6 6 6 5 5 5 6 5 5 5 5 5 5 5 5 5 4 4 4 3 3 3 4 5 6 7 6 5 4 4 4 4 4 4 5 6 6 6 5 5 5 4 4 4 4 4 5 5 5 5 5 5 5 5 5 5 5 5 5 5 5 5 6 5 5
10 14 13 9 9 8 8 10 12 11 11 12 10 8 8 8 7 6 6 7 6 6 6 5 6 5 5 5 4 5 4 4 5 4 4 5 4 4 4 4 3 2 3 2 3 6 7 6 6 6 6 5 5 6 6 6 6 6 5 5 5 5 5 5 5 5 6 6 6 5 5 5 5 5 5 5 5 5 5 5 5 5 6 6 5
8 12 13 8 8 8 7 10 11 11 12 11 9 7 8 9 8 6 6 7 6 6 6 5 5 5 5 5 4 4 4 4 4 4 3 4 4 3 3 3 3 4 5 3 1 4 6 7 7 8 8 7 7 7 7 6 6 5 5 5 5 5 5 6 6 6 6 6 6 6 5 5 5 6 6 6 6 6 6 6 6 6 6 6 6
8 11 13 9 8 7 7 10 11 11 12 10 8 7 7 7 9 9 8 7 5 5 5 4 4 4 5 5 4 4 4 4 4 4 4 4 4 4 3 3 4 4 3 3 0 3 4 5 6 8 10 9 8 7 7 6 6 6 6 6 5 5 6 6 6 6 6 6 6 6 6 6 6 6 7 7 7 7 7 7 7 7 7 7 7
9 10 12 9 7 7 8 10 10 11 11 9 8 8 8 7 8 10 9 7 5 5 5 4 4 4 5 4 3 4 3 3 3 3 4 4 4 5 4 3 3 2 2 3 2 3 3 4 6 7 8 8 8 7 6 6 6 6 6 5 5 5 5 5 5 6 6 6 6 6 6 6 7 7 7 7 7 8 8 8 8 8 8 9 9
9 9 10 9 7 7 8 9 10 11 11 9 7 8 11 10 8 9 9 6 5 5 4 4 3 3 4 3 3 3 3 4 3 3 4 4 4 4 4 4 3 2 3 3 3 1 2 4 5 4 5 5 7 6 6 6 6 6 5 5 5 5 5 5 5 6 6 6 6 6 7 7 7 7 8 8 8 9 9 9 10 10 10 10 11
9 9 9 9 8 8 8 9 10 11 12 11 9 9 10 10 9 10 8 5 4 4 4 4 4 4 4 3 3 3 3 4 4 4 5 5 4 4 4 3 4 4 2 2 4 3 1 4 4 1 2 3 5 6 5 6 6 6 5 5 6 6 6 6 6 6 6 7 7 8 8 8 8 9 9 9 10 10 10 11 11 11 12 12 12
9 9 9 9 9 9 8 9 9 10 11 11 10 10 10 9 9 9 7 5 4 5 5 5 3 4 5 4 4 3 3 3 4 4 5 5 5 5 5 4 4 4 2 3 5 4 2 2 2 1 1 1 2 5 5 6 7 6 5 6 6 6 6 7 7 7 7 8 9 9 10 11 11 11 11 12 12 12 12 13 13 14 13 13 13
9 8 9 9 9 9 9 9 9 10 10 10 10 9 10 10 8 6 6 5 5 5 5 5 4 4 5 5 5 4 4 3 4 5 6 5 5 5 5 5 4 3 2 2 3 2 2 1 1 1 1 3 1 2 3 5 7 7 7 8 8 8 8 9 9 9 9 10 10 11 12 13 13 13 14 14 15 14 15 15 15 16 15 15 15
8 8 8 8 9 9 9 9 9 10 9 10 10 9 10 9 6 6 6 5 4 5 4 5 5 4 3 3 5 6 6 7 6 6 5 5 6 5 5 6 5 3 3 3 2 2 2 1 1 2 3 4 3 2 1 4 8 9 9 9 10 10 10 11 11 11 11 12 12 13 14 15 15 15 16 16 16 16 17 17 17 17 16 16 15
7 7 7 7 9 9 9 10 9 9 9 8 8 8 8 7 7 7 6 5 5 5 4 3 4 6 5 4 5 6 6 7 6 4 5 5 5 5 5 6 4 3 3 3 2 2 2 1 1 3 5 5 4 4 2 3 8 10 10 10 11 11 11 12 13 13 13 14 14 14 15 16 16 16 16 17 17 17 17 17 16 16 15 15 15
6 7 6 7 8 8 10 9 8 9 9 8 8 9 8 6 7 6 4 6 6 5 4 3 3 6 6 5 5 4 4 4 4 4 4 4 4 4 5 5 4 3 4 3 2 2 2 1 2 3 5 4 3 4 2 3 8 10 9 11 12 12 13 14 15 15 15 15 15 15 15 16 16 16 16 16 16 16 15 15 15 15 15 14 15
6 6 6 6 7 7 9 9 8 8 9 9 8 7 7 5 6 6 5 6 7 5 4 3 3 4 4 3 3 3 3 3 4 4 3 2 2 4 5 5 5 4 4 4 4 4 3 1 1 1 3 3 3 3 3 4 8 10 10 12 13 13 14 15 16 16 16 15 15 15 14 14 14 14 14 15 15 15 15 15 15 15 15 15 16
6 6 6 6 6 7 7 8 8 7 8 9 8 6 7 7 7 7 7 6 7 5 4 4 3 3 3 3 2 2 4 3 3 4 3 3 3 4 4 4 5 5 4 5 5 3 3 2 1 1 2 3 4 4 3 5 9 10 11 11 12 13 14 15 15 15 14 14 14 13 14 13 13 14 14 14 15 15 15 15 16 16 16 16 17
6 6 6 6 6 6 6 7 7 7 7 7 7 7 9 8 7 7 6 5 5 5 5 5 3 2 1 2 2 2 2 2 3 4 3 3 4 5 5 4 5 4 3 4 4 3 3 2 2 2 2 3 4 5 3 4 7 9 10 11 11 12 13 14 15 15 14 14 14 14 14 14 14 14 15 15 16 17 17 17 16 16 16 16 16
6 6 6 6 6 6 5 5 6 6 7 6 7 7 7 7 7 6 6 6 5 4 4 3 2 2 1 1 2 2 2 2 3 3 3 2 3 6 6 5 6 5 2 4 4 3 2 2 2 3 3 3 3 3 4 5 6 8 10 11 11 13 14 14 15 16 16 16 16 16 16 16 16 16 16 17 18 18 18 17 16 15 15 15 15
6 6 6 6 7 7 6 5 5 6 7 7 5 5 5 5 6 7 7 6 6 4 3 2 1 2 1 1 1 1 1 2 2 3 3 2 2 2 5 4 5 5 3 4 4 2 2 2 1 1 2 2 3 4 5 7 8 9 10 10 12 14 15 16 17 17 17 18 18 18 17 17 17 17 17 18 18 18 17 15 14 14 14 14 15
8 7 7 7 7 8 7 6 6 6 6 6 5 5 5 4 6 7 7 6 6 5 4 3 1 1 1 2 2 1 1 1 1 3 2 3 2 1 2 4 4 5 4 4 3 3 3 2 1 1 2 3 4 6 6 7 9 10 10 10 12 15 16 17 18 18 18 18 18 18 18 18 18 18 18 18 18 17 16 14 13 13 14 15 15
9 8 8 8 7 7 8 7 7 6 6 7 8 10 9 6 6 6 6 7 6 6 5 4 3 3 2 2 3 2 2 2 2 3 2 3 3 2 1 4 4 4 4 3 3 4 3 1 0 1 4 4 5 6 5 3 8 11 11 10 12 15 16 17 18 18 18 18 19 19 19 19 18 18 18 18 17 16 14 13 13 14 15 15 16
9 8 8 9 8 7 7 7 6 7 7 7 8 9 10 8 7 6 5 6 6 6 6 4 4 4 3 3 3 2 2 2 2 3 3 3 3 1 1 2 4 4 5 2 2 3 2 1 1 3 6 4 4 5 5 0 5 11 13 12 14 15 15 16 17 18 18 18 19 19 20 19 19 19 18 17 16 15 14 13 14 15 16 17 18
9 9 9 10 9 8 7 7 7 6 6 7 7 7 8 7 7 8 7 6 7 6 6 5 5 5 4 4 4 2 2 2 3 2 2 2 2 2 2 3 3 3 6 5 3 2 2 2 1 3 9 8 5 6 7 4 6 12 13 11 12 14 15 16 17 18 18 19 19 19 19 19 19 19 17 16 16 15 14 14 15 16 18 19 19
10 10 10 10 10 9 8 7 7 7 7 7 6 6 7 7 7 8 7 6 6 7 7 6 6 6 5 6 5 4 2 3 3 2 2 2 2 2 2 2 1 2 2 4 4 2 2 2 3 3 10 11 6 5 7 5 7 13 13 9 10 14 17 17 16 17 18 19 20 20 20 20 19 19 18 17 16 15 14 14 15 17 19 21 21
10 11 11 11 10 10 9 8 8 8 8 7 7 6 6 7 7 7 7 6 6 7 7 6 6 6 6 6 6 5 4 5 4 3 5 5 5 3 2 4 4 2 2 1 2 1 1 1 3 5 10 10 7 6 6 6 9 12 13 11 9 11 16 17 16 17 18 19 20 20 21 20 20 19 17 17 16 16 15 15 16 18 20 21 22
12 11 12 12 12 11 10 10 10 9 9 8 8 7 7 7 7 7 8 8 8 6 7 7 6 6 7 7 7 6 5 6 4 4 6 5 6 4 2 3 4 2 1 1 2 2 1 1 2 5 10 9 7 6 5 8 12 12 12 14 12 12 15 17 18 19 19 19 20 20 21 21 20 19 17 16 16 16 15 16 17 19 20 22 22
14 13 12 12 12 12 12 11 11 10 10 10 9 8 8 8 8 7 7 8 8 7 7 7 6 7 7 7 7 7 6 6 6 6 6 6 5 5 4 3 3 2 2 1 2 3 2 2 4 4 6 8 9 7 5 7 11 12 13 13 14 15 15 16 19 21 20 19 19 20 21 21 21 20 18 16 16 16 16 17 18 19 20 21 22
14 15 14 13 13 13 12 11 11 11 11 11 10 9 9 9 8 8 8 8 7 7 7 7 6 7 8 8 8 8 7 7 8 7 7 7 6 6 5 4 3 3 3 2 3 5 4 5 6 5 4 7 9 10 10 8 9 13 15 14 15 16 14 13 17 20 21 21 20 20 21 21 21 20 18 17 17 17 17 18 19 20 21 21 22
15 15 15 16 15 14 13 12 12 12 12 12 12 11 10 10 9 9 9 9 8 7 8 8 8 8 8 8 8 8 8 8 9 8 8 8 7 7 7 6 5 4 4 4 4 6 6 5 6 6 7 8 9 11 13 10 9 12 14 14 14 13 11 13 17 19 21 21 21 22 21 21 21 20 19 18 18 17 18 18 19 20 21 22 22
17 16 16 16 16 15 15 14 13 13 14 14 13 12 12 11 10 10 10 9 8 8 8 8 9 9 9 8 8 8 8 8 9 9 9 9 8 8 8 7 7 6 7 7 7 7 7 6 6 7 8 9 9 11 12 12 11 13 14 14 12 9 11 14 15 17 20 21 23 24 21 20 20 20 19 19 19 18 18 18 19 20 21 22 23
18 18 17 16 17 18 17 16 16 15 16 16 15 14 14 13 12 11 11 11 10 9 9 9 9 9 10 9 9 9 9 9 9 10 10 10 10 10 10 9 8 8 8 9 10 9 9 8 8 8 8 9 11 12 13 13 14 14 14 14 12 10 13 15 13 14 18 20 23 26 23 20 20 20 19 19 19 19 19 19 19 19 20 21 22
19 19 19 18 18 20 20 19 18 18 17 17 16 15 15 15 14 13 13 13 12 11 11 10 10 11 11 11 11 10 10 10 11 10 10 11 11 11 11 11 11 11 10 11 12 13 12 12 12 11 11 12 13 13 13 13 13 15 16 16 15 14 14 15 12 12 17 20 22 25 24 22 20 19 20 21 20 20 20 19 19 19 20 20 21
20 20 20 20 20 21 22 21 21 20 19 18 17 16 16 15 15 14 13 13 13 12 12 12 12 13 13 12 12 11 11 12 12 12 11 12 12 12 12 12 12 12 12 12 13 14 14 15 14 14 14 15 15 14 14 14 13 14 15 16 17 17 16 17 14 11 15 18 20 24 25 24 22 21 20 21 21 21 21 20 19 20 20 19 19
21 21 21 21 22 23 24 23 22 22 21 20 20 19 17 16 15 15 14 14 13 13 12 12 13 13 13 13 13 13 13 13 13 13 13 13 13 13 13 13 13 13 13 14 15 15 16 17 17 17 16 15 15 15 15 15 16 16 16 17 17 15 14 16 16 14 15 15 17 23 25 24 23 22 22 22 21 21 22 21 20 20 21 20 19
23 22 22 22 23 24 25 24 23 23 23 22 22 22 20 18 17 17 16 15 14 14 13 13 13 13 13 14 14 14 15 15 15 15 14 14 14 14 14 14 15 15 15 15 15 16 16 17 16 16 15 13 13 14 13 14 17 20 19 16 14 12 12 15 18 18 17 15 17 20 21 21 22 22 22 22 22 22 22 22 21 21 21 21 19
23 23 23 23 23 23 24 25 24 24 24 24 24 24 23 22 20 19 18 17 16 16 15 15 14 14 14 14 14 15 16 17 17 16 15 15 15 15 15 15 16 16 16 15 15 15 15 16 15 15 15 15 15 16 15 15 16 17 14 11 12 13 15 16 17 16 16 19 21 17 14 16 20 22 22 22 22 23 22 22 21 21 21 21 20
23 23 24 24 23 23 23 25 25 25 25 26 26 26 26 26 24 22 21 20 19 18 17 17 16 16 16 16 15 16 16 18 19 18 17 18 18 17 16 16 17 17 18 18 17 17 17 17 17 17 17 17 17 16 15 14 13 13 12 13 14 15 15 14 14 15 15 17 19 16 13 14 16 19 21 22 21 22 22 21 21 21 21 22 20
23 23 24 24 24 24 24 24 25 26 26 27 29 29 28 28 27 26 24 23 22 21 21 20 20 19 18 18 17 17 18 20 21 22 21 19 20 20 19 18 19 19 20 19 19 19 19 19 19 18 17 17 16 15 14 14 13 14 14 15 15 15 14 14 16 16 14 14 16 18 18 17 16 18 20 20 20 21 21 21 21 22 23 23 21
25 24 24 25 25 24 24 24 25 26 27 28 30 31 30 29 29 29 28 26 25 25 25 24 24 23 21 20 20 20 21 22 25 26 24 21 21 22 22 23 24 24 23 22 20 18 18 19 19 18 18 18 16 15 15 14 14 14 14 14 15 15 15 16 16 15 14 15 17 20 20 19 20 21 21 20 19 19 20 22 24 23 23 23 21
27 27 26 26 26 26 25 25 25 26 26 28 30 32 32 31 30 31 30 28 26 27 27 27 27 27 26 24 23 22 22 23 24 26 26 25 24 23 24 24 26 27 27 27 25 23 21 20 20 19 19 18 18 17 16 15 15 16 17 17 18 19 18 18 17 17 17 17 18 21 23 22 22 22 21 19 17 16 17 21 23 23 23 23 21
28 28 28 28 28 28 27 26 26 26 26 27 30 33 34 33 32 32 32 30 28 26 26 27 27 28 29 29 28 27 25 24 24 24 26 28 27 25 25 26 27 28 28 29 29 28 28 27 26 26 24 23 23 23 21 20 20 21 22 23 24 23 21 20 19 19 20 21 22 24 26 25 23 20 19 17 14 15 18 21 21 21 21 20 19
28 29 30 30 30 31 30 30 29 28 27 27 29 31 34 34 34 34 35 34 33 31 29 28 27 27 28 31 33 34 33 31 29 28 29 31 31 29 27 27 28 29 29 29 30 30 30 31 31 32 30 29 29 29 27 26 26 25 25 25 25 24 22 21 22 23 24 26 26 25 25 23 19 17 16 14 13 17 21 21 20 19 17 16 16
28 29 30 30 31 32 33 33 32 31 30 29 30 31 32 34 35 35 36 37 38 37 37 35 34 32 31 31 33 36 37 36 35 33 33 34 34 33 32 31 30 31 31 31 30 30 30 31 31 32 31 30 30 29 28 28 27 26 26 25 24 24 23 24 25 26 27 26 23 22 24 22 16 14 15 14 14 19 23 23 20 18 15 13 14
27 28 29 29 30 31 32 33 34 34 33 33 34 35 35 36 36 36 36 37 38 39 41 40 39 39 38 36 37 39 40 39 38 37 36 35 35 34 34 34 32 32 32 31 31 30 30 30 31 31 30 29 29 29 29 28 26 24 23 22 21 22 24 26 27 27 26 23 18 18 22 22 18 16 16 15 14 17 22 24 22 19 16 14 14
25 26 27 27 28 29 30 32 34 34 34 35 36 38 38 37 37 36 36 36 36 38 40 41 41 41 42 42 42 43 43 42 41 40 38 37 36 35 34 34 33 32 31 29 28 29 30 29 29 29 29 28 28 28 28 29 28 26 25 26 26 26 26 27 27 25 22 20 17 16 18 21 20 17 16 16 15 16 19 23 23 21 19 18 16
24 25 25 25 25 26 27 29 31 33 34 35 37 38 38 37 37 36 36 36 36 37 38 40 41 42 43 44 44 44 44 43 42 41 39 38 37 36 35 35 34 34 33 30 27 27 28 28 27 26 26 26 27 27 28 28 28 28 28 29 29 28 28 27 26 23 21 21 20 17 18 19 18 17 16 16 17 16 17 20 22 22 22 22 20
22 21 22 24 24 25 26 27 29 31 33 34 36 37 37 37 36 36 36 36 37 37 37 38 39 40 42 43 44 44 44 43 42 41 40 39 38 37 37 36 37 38 36 33 28 26 26 27 27 27 27 27 27 27 27 26 26 27 29 30 29 29 30 30 29 26 22 22 20 17 18 19 17 16 16 16 16 15 15 19 23 23 23 23 21
Wind_Direction
114 115 121 113 102 103 105 104 102 96 98 101 96 94 94 97 102 102 99 97 97 98 96 95 96 97 96 96 98 102 105 106 106 103 90 71 70 80 85 86 89 88 88 88 89 89 87 87 86 88 89 89 89 87 85 84 82 78 69 63 62 63 61 56 50 40 27 19 14 11 8 5 4 2 3 5 2 7 20 25 26 30 29 31 36
106 109 115 111 108 111 109 103 98 97 105 106 101 97 94 96 98 96 94 97 100 99 99 99 101 97 94 94 96 99 102 103 103 108 112 93 75 79 83 84 85 84 86 87 88 86 85 86 85 87 90 88 86 85 83 78 73 68 60 55 53 54 49 43 40 30 16 9 9 6 1 359 356 356 359 357 357 11 21 20 24 27 27 31 34
104 110 111 109 113 113 106 104 100 99 103 104 105 105 107 108 103 98 97 101 104 102 103 105 101 98 98 100 101 102 102 100 100 106 120 111 89 82 83 84 85 84 84 82 82 82 80 81 80 82 81 77 77 80 79 67 65 60 50 44 37 35 34 29 26 23 17 9 5 0 354 351 350 351 355 356 5 22 24 22 28 28 29 33 33
107 111 114 117 118 114 109 109 107 105 106 105 105 107 113 113 109 107 103 98 102 105 105 104 103 103 101 101 101 100 101 104 108 115 122 113 99 91 85 84 86 86 85 82 80 78 77 76 77 78 75 69 69 68 63 52 53 53 41 36 36 35 34 28 25 22 18 9 359 355 352 352 355 359 5 11 22 29 28 31 34 33 34 36 37
112 108 112 121 119 118 119 116 118 122 121 116 108 103 105 110 110 106 100 94 98 105 111 111 112 109 101 102 106 104 104 105 111 116 112 103 106 104 97 93 90 87 84 81 77 73 70 70 72 72 69 59 58 54 48 48 48 46 42 39 39 38 35 30 25 21 13 6 4 6 8 11 17 24 28 33 37 34 32 34 33 34 34 33 35
118 114 113 117 115 120 125 125 131 132 129 122 111 105 108 108 107 105 105 107 108 110 120 123 118 115 113 113 115 116 115 114 119 122 120 116 113 106 102 100 94 94 92 83 73 65 56 56 56 51 54 46 44 46 40 44 46 45 45 43 42 38 37 35 29 25 22 21 27 29 30 31 34 38 42 44 43 39 33 31 29 29 29 26 25
125 122 115 110 111 121 127 132 137 135 137 132 125 130 131 121 114 119 124 124 126 122 122 126 123 124 125 122 122 120 120 128 129 127 133 134 129 126 121 107 89 88 96 90 70 56 43 39 46 41 44 44 41 44 43 46 48 49 48 46 50 48 45 44 40 38 38 40 42 43 42 40 41 42 43 41 38 36 31 28 23 19 19 16 12
129 123 113 110 116 124 134 138 139 138 143 136 132 143 140 136 137 138 135 128 130 129 127 129 127 128 126 125 129 124 124 132 126 125 139 135 130 134 132 133 139 113 83 93 63 47 40 35 45 47 44 45 46 48 49 51 52 54 57 56 56 57 56 51 49 47 45 48 47 45 43 39 38 35 33 32 26 23 18 12 8 4 1 356 353
126 122 114 114 121 129 140 138 137 140 143 135 136 147 140 144 144 141 141 132 130 130 127 128 128 132 128 128 129 126 131 129 127 134 137 129 127 127 120 115 101 69 63 76 19 17 32 34 42 46 42 42 46 51 53 56 60 62 63 64 62 59 57 52 49 49 46 46 44 40 37 30 26 22 20 18 12 8 3 358 353 349 345 340 337
119 120 118 119 126 135 138 133 137 142 139 133 141 144 134 143 143 141 141 127 123 126 124 126 127 128 128 133 134 128 132 132 139 143 125 116 121 125 122 90 67 63 81 119 68 350 18 33 40 39 37 38 41 48 54 56 58 62 63 62 61 57 54 53 49 47 45 41 37 32 27 21 16 11 9 5 1 357 353 349 344 341 336 332 329
113 115 118 124 130 132 132 131 138 140 134 133 145 148 144 149 147 142 134 121 121 125 123 122 120 122 124 128 132 130 133 133 130 127 129 122 113 121 119 101 106 102 90 113 97 355 8 31 41 31 23 32 39 42 50 55 56 55 59 58 56 57 52 51 47 41 39 33 28 22 15 10 6 1 357 352 349 346 343 340 337 334 331 328 326
113 111 116 126 131 129 131 135 140 137 132 134 147 154 149 151 154 138 124 123 125 124 122 118 122 121 116 121 126 132 136 140 139 126 135 132 111 122 125 103 119 108 62 95 133 89 17 31 53 32 353 15 34 37 45 52 54 53 54 56 54 54 49 43 38 31 25 19 13 7 2 356 353 348 344 340 338 336 334 332 330 328 328 326 325
116 113 115 123 129 131 135 137 140 139 138 144 156 155 145 144 144 126 116 129 128 128 127 112 117 114 110 120 119 128 128 127 146 144 133 131 111 115 129 113 107 111 82 76 99 105 39 22 59 70 310 354 17 22 49 56 51 49 49 51 49 44 39 29 22 16 10 6 0 355 351 347 344 340 338 336 334 333 332 331 329 328 328 327 327
117 117 118 123 129 134 138 137 140 144 146 152 155 150 142 139 134 120 119 135 129 135 131 104 105 115 117 122 115 132 146 125 143 144 130 129 120 110 119 120 112 115 94 38 56 77 107 41 62 197 254 71 3 356 30 41 38 42 36 35 33 27 22 14 10 6 2 358 353 350 346 343 341 339 338 337 336 336 335 334 333 332 331 330 331
121 121 121 124 130 132 134 138 140 143 145 147 147 146 143 135 127 126 131 135 129 133 127 106 106 110 114 126 117 112 126 133 134 131 125 126 126 115 115 123 119 111 110 90 73 83 123 108 345 280 85 95 121 329 7 4 8 20 18 19 19 16 14 8 4 360 355 352 348 345 342 340 339 337 336 336 335 335 335 335 335 334 333 333 335
123 122 124 126 131 131 132 138 141 143 144 145 145 147 143 132 130 138 131 128 130 127 118 107 112 107 97 121 122 106 109 124 127 123 123 126 128 117 121 135 126 109 119 124 122 101 107 147 322 19 68 75 66 60 42 336 353 12 16 15 13 10 8 2 357 353 349 345 341 339 338 336 336 334 333 332 332 332 332 333 334 334 334 336 339
129 129 135 132 133 136 135 137 143 144 140 137 141 145 141 138 144 138 123 122 125 125 119 101 111 115 102 105 114 103 98 113 123 121 113 116 122 110 120 142 130 111 138 137 130 116 105 129 355 32 43 42 28 29 29 327 353 10 15 12 8 5 3 357 353 348 343 340 336 334 334 334 334 333 333 333 334 334 334 334 334 335 336 339 341
138 138 142 138 135 139 136 135 143 143 141 145 153 149 139 141 143 128 123 130 118 118 125 107 108 106 96 100 103 91 79 91 111 119 112 111 126 120 119 140 132 102 128 139 127 137 144 84 35 33 29 25 0 1 10 340 353 2 3 3 3 1 358 355 351 346 342 338 335 334 334 336 337 339 341 342 343 343 343 342 341 341 341 341 339
150 145 145 145 139 139 136 136 142 144 149 151 145 139 138 150 152 141 158 151 121 112 118 108 102 97 97 107 90 86 94 89 103 118 117 93 118 133 125 141 143 112 125 149 131 122 138 115 72 25 4 11 353 354 355 334 345 355 359 358 357 355 353 353 352 347 343 341 340 341 344 347 349 352 356 357 358 358 355 353 350 348 346 343 339
164 151 147 152 145 143 140 137 143 148 150 143 134 151 172 173 168 163 167 157 131 126 130 113 94 97 118 113 81 86 100 97 113 119 120 109 123 144 134 139 138 117 121 142 135 123 116 93 106 148 358 357 348 352 348 328 336 346 356 357 354 353 355 358 0 356 352 354 357 358 360 3 4 6 8 7 6 3 358 354 351 348 345 343 341
169 156 153 155 148 147 144 140 146 148 142 142 151 176 187 175 166 168 162 154 145 140 137 122 96 88 92 93 102 96 91 118 127 116 127 133 129 134 132 131 129 116 107 122 127 131 113 61 62 90 49 358 350 356 352 338 337 340 354 3 2 3 5 8 12 10 9 10 11 10 9 9 9 8 8 6 3 359 354 350 347 345 344 343 341
172 167 162 159 152 147 146 144 146 146 146 162 175 176 178 170 165 169 166 165 163 147 133 127 122 128 110 85 111 98 98 128 137 128 132 144 154 150 147 148 143 137 116 120 126 125 104 63 65 81 46 12 5 357 334 340 356 353 358 10 14 15 16 16 19 20 18 17 13 10 8 6 5 4 3 2 360 355 351 348 346 346 345 345 343
175 180 171 165 161 150 147 153 159 169 167 170 174 167 168 174 176 175 176 177 170 163 158 156 171 151 160 210 139 114 120 116 146 153 141 173 231 171 139 137 141 145 144 136 138 133 118 105 95 87 28 3 345 336 341 356 12 10 7 17 23 22 20 18 20 22 19 16 12 10 8 6 4 2 0 359 356 353 351 350 350 351 351 351 349
175 183 180 179 176 157 158 172 175 180 176 165 166 166 167 183 193 182 182 186 179 182 174 159 196 177 162 217 207 196 195 172 171 162 156 176 207 333 119 143 146 138 149 161 153 136 125 115 89 346 325 329 323 338 6 358 353 5 10 15 24 22 19 17 18 19 18 15 12 10 9 6 3 1 358 355 354 354 354 355 358 360 359 357 353
179 182 182 186 190 172 170 180 180 179 178 179 182 175 167 179 203 189 186 194 189 195 185 167 211 198 166 212 213 219 223 227 201 175 167 162 175 311 90 160 176 138 140 179 163 143 141 151 139 319 321 332 325 348 37 340 323 360 7 7 25 23 14 14 15 15 15 13 11 10 8 6 3 360 356 354 354 356 358 2 5 5 3 0 357
185 183 182 186 194 189 183 185 188 186 183 183 185 181 174 180 194 183 188 207 201 204 198 189 213 205 190 208 200 229 238 217 204 191 194 178 186 240 118 212 226 159 145 178 177 168 161 161 184 311 323 342 335 350 39 292 317 2 3 3 19 18 9 11 11 11 11 10 10 9 6 4 1 359 356 355 356 358 2 5 6 6 5 4 3
191 188 186 188 195 197 192 190 192 188 187 185 180 183 183 182 185 176 184 212 208 204 204 202 217 214 210 213 199 218 247 215 210 216 221 203 182 177 169 253 268 159 155 165 177 199 154 155 205 332 334 344 353 349 7 12 343 358 4 6 4 0 7 8 5 7 8 8 8 7 5 2 359 358 357 358 357 358 2 4 4 5 6 8 7
197 197 196 194 197 199 194 194 196 191 189 191 185 186 186 181 187 180 179 206 211 202 204 208 219 221 220 222 214 213 237 228 213 214 221 187 155 161 167 207 251 94 138 159 173 186 146 223 253 311 324 334 358 349 352 358 339 347 1 7 346 346 359 359 356 3 6 5 6 4 2 0 359 358 358 359 357 356 359 359 1 4 7 8 7
195 200 204 201 201 202 198 196 199 199 196 198 195 194 190 186 194 186 177 203 219 204 201 210 219 223 225 232 232 225 234 236 215 218 230 194 160 164 165 175 168 99 51 210 229 244 84 267 284 326 324 336 7 356 339 322 324 344 356 356 345 340 343 343 350 1 2 3 3 1 360 358 358 359 358 357 355 353 354 354 357 2 5 7 6
194 197 205 207 205 203 204 203 202 204 203 204 203 199 195 194 202 195 184 198 212 205 201 207 213 219 222 228 233 230 236 236 218 228 243 212 168 168 167 172 164 109 56 235 257 277 1 333 322 339 334 339 351 342 318 301 318 342 350 346 345 337 335 341 349 354 356 359 0 358 356 354 355 358 358 355 353 350 349 350 353 357 0 2 3
203 201 201 208 210 206 206 208 208 207 207 207 208 204 199 201 206 204 200 201 201 203 209 207 209 219 219 218 227 227 227 230 219 222 239 224 187 183 190 195 181 164 188 201 254 258 254 293 303 326 331 326 322 311 299 298 314 334 344 344 341 340 344 344 342 345 346 350 356 356 352 351 350 353 355 353 351 350 348 347 349 351 353 355 357
211 211 204 204 210 209 207 210 211 213 214 211 211 211 205 208 210 204 210 216 207 208 215 208 211 228 226 218 225 227 220 222 221 217 227 228 211 199 202 214 216 216 224 225 272 278 264 261 280 294 297 304 309 304 309 318 315 325 339 341 338 344 349 335 329 337 339 340 347 351 349 347 345 347 350 350 348 347 346 346 346 346 346 347 350
209 216 217 212 210 209 207 207 209 213 218 214 212 215 212 212 213 206 211 218 212 214 221 210 209 228 235 226 226 230 224 220 219 218 225 229 223 217 215 216 223 234 246 252 265 282 283 267 267 273 276 287 295 297 308 319 310 312 325 330 334 341 335 321 324 330 331 332 335 341 344 342 341 342 345 346 346 345 344 344 342 341 341 341 343
209 211 219 219 215 215 211 208 207 211 218 216 210 215 219 218 215 212 218 225 218 216 223 220 213 220 233 233 230 234 235 228 220 217 224 229 225 225 226 226 230 230 238 252 258 268 280 280 268 266 275 281 282 287 301 310 308 310 316 323 329 323 309 318 324 319 319 324 325 328 334 337 338 339 340 343 344 343 342 340 339 338 338 338 338
214 213 214 214 217 222 220 215 213 212 217 219 211 210 218 222 219 213 216 227 229 224 224 229 226 223 230 235 231 231 235 237 231 222 224 229 229 229 231 231 231 231 235 247 258 266 274 275 270 268 268 266 269 282 298 307 312 315 317 319 320 309 305 319 325 309 307 314 316 319 325 333 337 336 336 340 342 342 341 339 338 338 337 337 337
214 217 217 212 214 224 227 224 223 220 219 221 218 214 217 222 222 217 214 219 226 229 227 229 231 230 231 234 233 230 230 235 238 233 227 229 232 234 237 237 235 237 240 245 255 265 272 274 276 276 273 271 278 289 296 300 305 309 312 313 314 312 308 313 319 304 297 305 310 312 318 327 332 333 334 337 339 341 341 339 338 338 337 337 337
211 216 222 218 213 222 230 229 229 229 226 224 224 221 220 224 225 223 222 223 224 228 229 228 229 231 231 233 234 233 231 233 237 237 233 230 233 235 238 241 243 247 249 248 252 259 266 272 276 280 283 286 291 294 293 294 296 299 304 307 308 310 308 310 316 303 294 305 309 307 314 324 327 329 332 333 336 339 341 340 338 337 336 337 337
212 211 219 222 218 223 232 233 230 232 232 229 228 226 220 221 226 225 223 226 227 227 228 230 231 232 233 234 234 233 233 233 234 239 239 235 234 236 239 240 241 244 247 249 253 258 265 272 277 281 285 286 287 289 290 294 295 295 298 301 303 304 301 302 308 304 299 302 301 302 313 322 322 324 327 329 333 337 338 337 336 335 335 335 336
216 213 214 219 221 224 232 235 232 233 235 233 232 232 224 218 221 226 223 223 228 228 227 229 231 234 235 236 237 236 236 236 234 235 240 240 238 238 240 243 242 244 246 249 256 261 266 272 275 278 281 279 276 279 283 288 293 299 304 304 303 298 287 290 301 305 303 299 296 302 312 316 315 318 322 324 328 332 334 334 334 334 333 332 334
217 217 214 216 220 222 229 234 232 231 235 237 235 234 231 223 218 223 225 223 225 228 230 230 230 232 234 235 238 239 240 243 242 238 236 238 241 240 240 242 244 247 249 249 251 254 258 262 265 267 268 268 268 272 276 277 281 291 298 293 288 286 286 293 300 303 301 302 306 309 305 304 309 313 315 317 321 326 330 333 335 335 330 329 333
218 218 217 217 219 219 221 229 231 228 230 236 238 235 234 230 224 222 226 227 226 227 229 232 232 233 235 236 237 239 242 249 253 252 244 237 238 240 240 240 241 245 249 250 250 251 254 258 261 264 266 267 270 275 277 275 272 277 280 279 283 288 290 291 292 295 297 297 302 303 292 290 300 304 307 310 313 319 323 327 333 334 329 328 332
218 219 218 218 219 219 218 222 228 228 226 231 238 238 235 234 231 227 227 229 232 231 231 233 236 236 237 239 240 241 242 245 250 255 255 249 245 245 244 242 242 244 249 253 253 252 254 258 261 264 265 265 269 272 274 273 274 278 281 282 284 288 287 284 285 292 296 289 288 293 293 291 291 294 300 305 306 310 314 320 329 333 328 328 332
219 219 218 218 218 219 220 220 223 227 226 228 235 240 239 236 234 232 231 232 235 238 238 238 241 242 241 241 242 244 244 244 248 254 259 258 254 253 251 248 247 249 252 254 254 252 252 255 258 260 261 263 266 267 269 273 276 280 282 281 281 282 282 284 286 290 293 290 289 294 296 294 294 296 299 302 303 304 307 315 325 328 325 325 328
220 220 220 220 220 220 221 223 224 226 228 228 234 241 243 240 237 235 234 233 235 239 242 243 245 247 247 245 244 244 246 249 253 259 262 261 257 256 256 255 254 253 253 253 254 254 252 252 254 255 256 260 263 264 267 270 274 276 278 280 283 285 284 282 282 284 290 292 291 294 296 296 296 296 293 296 302 298 296 306 315 318 318 320 321
222 223 224 224 226 226 225 224 225 227 230 231 234 241 245 244 241 237 235 234 233 236 240 243 245 246 248 249 248 246 246 248 251 255 260 262 261 258 258 259 258 257 257 256 256 257 256 256 257 258 260 261 264 267 271 273 276 279 281 285 289 290 287 284 283 286 290 293 291 289 291 294 296 293 287 288 292 284 286 301 309 312 316 318 316
222 225 229 231 233 236 235 231 229 229 231 233 236 242 247 247 244 241 239 238 238 238 239 240 241 243 247 250 253 253 251 250 249 249 253 260 263 263 261 260 259 260 260 260 260 260 260 260 261 264 267 268 270 274 277 278 280 282 284 287 289 289 287 285 285 288 291 296 297 292 290 293 295 288 282 282 279 276 285 301 309 309 313 317 315
223 227 232 236 237 241 243 240 237 234 233 233 235 239 245 248 247 245 242 241 241 242 243 243 243 243 244 246 251 256 256 255 254 253 253 258 263 265 265 263 262 263 263 264 264 263 263 264 266 268 272 273 273 275 276 277 279 282 285 287 287 287 286 284 286 290 294 299 300 292 289 295 297 283 278 282 281 280 288 300 308 309 308 310 312
224 227 232 236 237 239 242 242 241 240 237 235 236 238 242 246 249 250 249 247 245 245 246 246 246 246 246 246 249 254 257 258 258 257 257 258 260 262 265 266 265 265 266 268 270 270 268 268 268 270 271 273 273 273 273 272 272 274 277 278 277 278 281 283 286 291 295 296 294 283 279 285 290 281 275 279 280 280 287 296 304 307 305 303 305
227 226 229 234 236 236 238 240 241 241 240 238 240 242 244 246 249 251 252 252 250 249 247 247 248 248 249 249 250 254 257 258 259 259 259 258 258 259 261 262 263 263 262 265 269 273 275 274 273 273 273 273 272 271 270 270 270 270 267 266 270 274 275 277 280 283 286 286 285 279 271 274 281 280 275 276 277 277 281 286 293 300 302 301 299
233 230 229 232 234 235 236 237 238 240 241 241 241 243 245 246 247 248 249 250 250 251 250 249 249 249 250 251 252 254 256 257 258 259 259 258 258 258 258 259 260 260 260 260 262 268 273 275 275 275 274 274 274 272 271 270 270 269 266 266 272 274 272 272 274 275 277 279 280 279 272 270 273 273 272 275 277 279 280 280 283 290 296 298 296
237 237 236 235 236 237 237 237 238 239 240 241 242 244 244 244 245 246 247 248 249 250 251 251 251 251 251 252 253 254 255 257 257 258 258 258 258 258 258 259 258 259 260 261 259 259 264 268 270 269 269 270 273 275 275 273 270 268 267 267 270 269 268 271 274 272 270 272 276 277 272 268 266 265 268 272 276 280 280 277 279 284 289 294 294